Weather History for KGRD - October, 2012

Change the Weather History Date:

Monday, October 1, 2012

  Actual Average (KAND) Record (KAND)
Temperature  
Mean Temperature 65 °F -  
Max Temperature 71 °F 77 °F 92 °F (1952)
Min Temperature 64 °F 55 °F 41 °F (1993)
Growing Degree Days 15 (Base 50)    
Moisture  
Dew Point 65 °F    
Average Humidity 97    
Maximum Humidity 100    
Minimum Humidity 94    
Precipitation  
Precipitation 0.68 in - - ()
Sea Level Pressure  
Sea Level Pressure 29.82 in    
Wind  
Wind Speed 4 mph (NE)    
Max Wind Speed 12 mph    
Max Gust Speed 22 mph    
Visibility 3 miles    
Events Fog , Rain , Thunderstorm    
Averages and records for this station are not official NWS values.
T = Trace of Precipitation, MM = Missing Value Source: NWS Daily Summary

Daily Weather History Graph

Daily Weather History Graph

Search for Another Location

Airport or City:

Trip Planner

Search our weather history database for the weather conditions in past years. The results will help you decide how hot, cold, wet, or windy it might be!

Date:

Astronomy

Oct. 01, 2012 Rise Set
Actual Time 7:23 AM EDT 7:12 PM EDT
Civil Twilight 6:58 AM EDT 7:37 PM EDT
Nautical Twilight 6:29 AM EDT 8:06 PM EDT
Astronomical Twilight 6:00 AM EDT 8:35 PM EDT
Moon 7:55 PM EDT (10/1) 8:45 AM EDT (10/1)
Length of Visible Light 12h 38m
Length of Day
11h 48m
Full, 98% of the Moon is Illuminated
Oct 1
Full
Oct 8
Last Quarter
Oct 15
New
Oct 21
First Quarter
Oct 29
Full

Hourly Weather History & Observations

Time (EDT) Temp. Dew Point Humidity Pressure Visibility Wind Dir Wind Speed Gust Speed Precip Events Conditions
12:11 AM 66.2 °F 64.4 °F 94% 29.87 in 2.0 mi Calm Calm - 0.06 in Rain Heavy Rain
12:28 AM 66.2 °F 64.4 °F 94% 29.86 in 4.0 mi East 3.5 mph - 0.10 in Rain Rain
12:54 AM 66.2 °F 64.4 °F 94% 29.86 in 4.0 mi Calm Calm - 0.14 in Rain Rain
1:13 AM 66.2 °F 64.4 °F 94% 29.86 in 2.5 mi Calm Calm - 0.05 in Rain Rain
1:38 AM 66.2 °F 64.4 °F 94% 29.85 in 2.0 mi East 3.5 mph - 0.25 in Rain Heavy Rain
1:56 AM 66.0 °F 64.9 °F 96% 29.84 in 5.0 mi Calm Calm - 0.29 in Rain Rain
2:05 AM 66.2 °F 64.4 °F 94% 29.86 in 3.0 mi Calm Calm - 0.05 in Rain Heavy Rain
2:56 AM 66.0 °F 64.9 °F 96% 29.82 in 10.0 mi Calm Calm - 0.10 in Rain Light Rain
3:04 AM 66.2 °F 64.4 °F 94% 29.83 in 10.0 mi Calm Calm - 0.00 in Rain Light Rain
3:56 AM 64.9 °F 64.0 °F 97% 29.80 in 10.0 mi NE 3.5 mph - 0.01 in Rain Light Rain
6:49 AM 64.4 °F 64.4 °F 100% 29.82 in 2.0 mi East 3.5 mph - 0.00 in   Overcast
6:56 AM 64.9 °F 64.0 °F 97% 29.81 in 1.8 mi East 4.6 mph - 0.00 in Rain Light Rain
7:08 AM 64.4 °F 64.4 °F 100% 29.82 in 2.5 mi East 3.5 mph - 0.02 in Rain Light Rain
7:15 AM 64.4 °F 64.4 °F 100% 29.82 in 3.0 mi East 3.5 mph - 0.02 in Rain Light Rain
7:34 AM 64.4 °F 64.4 °F 100% 29.82 in 2.5 mi East 5.8 mph - 0.02 in Rain Light Rain
7:51 AM 64.4 °F 64.4 °F 100% 29.82 in 1.5 mi Variable 3.5 mph - 0.03 in Rain Light Rain
7:56 AM 64.9 °F 64.9 °F 100% 29.81 in 1.5 mi East 4.6 mph - 0.03 in   Overcast
8:56 AM 66.0 °F 64.9 °F 96% 29.83 in 1.5 mi NE 4.6 mph - 0.02 in Rain Light Rain
9:56 AM 66.0 °F 64.9 °F 96% 29.84 in 1.0 mi NE 5.8 mph - 0.00 in   Overcast
10:12 AM 66.2 °F 64.4 °F 94% 29.85 in 0.8 mi NE 5.8 mph - 0.01 in   Overcast
10:33 AM 66.2 °F 66.2 °F 100% 29.86 in 1.0 mi ENE 5.8 mph - 0.01 in   Overcast
10:56 AM 66.9 °F 66.0 °F 97% 29.84 in 1.2 mi NNE 5.8 mph - 0.01 in   Overcast
11:56 AM 66.9 °F 66.0 °F 97% 29.83 in 1.8 mi NNE 6.9 mph - 0.00 in   Overcast
12:30 PM 66.2 °F 66.2 °F 100% 29.85 in 2.5 mi NE 5.8 mph - N/A   Overcast
12:56 PM 66.9 °F 66.0 °F 97% 29.83 in 2.5 mi NE 6.9 mph - N/A   Overcast
1:07 PM 66.2 °F 66.2 °F 100% 29.85 in 3.0 mi NE 6.9 mph - N/A   Overcast
1:56 PM 66.9 °F 66.0 °F 97% 29.81 in 2.5 mi NE 8.1 mph - N/A   Overcast
2:20 PM 66.2 °F 66.2 °F 100% 29.82 in 1.8 mi NE 6.9 mph - N/A   Overcast
2:56 PM 66.9 °F 66.0 °F 97% 29.80 in 1.5 mi ENE 8.1 mph - N/A   Overcast
3:09 PM 66.2 °F 66.2 °F 100% 29.81 in 3.0 mi ENE 5.8 mph - N/A   Overcast
4:04 PM 66.2 °F 64.4 °F 94% 29.81 in 2.5 mi NE 6.9 mph - N/A   Overcast
4:24 PM 66.2 °F 64.4 °F 94% 29.80 in 1.8 mi NNE 9.2 mph - N/A   Overcast
4:56 PM 66.0 °F 64.9 °F 96% 29.78 in 1.8 mi NE 8.1 mph - N/A   Overcast
6:06 PM 64.4 °F 64.4 °F 100% 29.77 in 0.8 mi ENE 8.1 mph 18.4 mph N/A   Overcast
6:56 PM 64.9 °F 64.0 °F 97% 29.76 in 0.2 mi ENE 8.1 mph - N/A Fog Fog
7:08 PM 64.4 °F 64.4 °F 100% 29.78 in 0.5 mi NNE 5.8 mph - N/A Fog Fog
7:38 PM 64.4 °F 64.4 °F 100% 29.78 in 1.0 mi NE 6.9 mph - N/A   Mist
7:56 PM 64.0 °F 64.0 °F 100% 29.77 in 1.2 mi NE 8.1 mph - N/A   Overcast
8:56 PM 64.0 °F 64.0 °F 100% 29.77 in 1.5 mi ENE 6.9 mph - N/A   Overcast
9:56 PM 66.0 °F 64.9 °F 96% 29.78 in 1.8 mi West 9.2 mph 21.9 mph 0.07 in Rain Heavy Rain
9:59 PM 66.2 °F 64.4 °F 94% 29.79 in 2.5 mi NE 11.5 mph 21.9 mph 0.00 in Rain , Thunderstorm Heavy Rain
10:04 PM 66.2 °F 64.4 °F 94% 29.79 in 4.0 mi Variable 4.6 mph 16.1 mph 0.02 in Rain , Thunderstorm Rain
10:25 PM 66.2 °F 64.4 °F 94% 29.79 in 3.0 mi North 8.1 mph - 0.09 in Rain Heavy Rain
10:56 PM 66.0 °F 64.9 °F 96% 29.78 in 4.0 mi NE 6.9 mph - 0.15 in Rain Light Rain
11:48 PM 69.8 °F 69.8 °F 100% 29.78 in 2.5 mi East 5.8 mph - 0.01 in   Overcast